When you browse on this site, cookies collect data to enhance your experience and personalize the content and advertising you see.
Visit our Privacy Policy to learn more. By continuing to use the site, you agree to this use of cookies and data.
  • In Austria
  • List of Countries
  • For 7 days
  • Water Temperature
  • Weather Map
  • News
  • Weather Widgets
  • user-avatar
    Login

    Hourly Weather Dalat

    Today, 18 January, Saturday

    Time Temperature Precipitation Wind Pressure Humidity
    00:00 +15°C° 0 mm 1 mps 653 mmHg 96%
    01:00 +15°C° 0 mm 1 mps 653 mmHg 95%
    02:00 +15°C° 0 mm 1 mps 653 mmHg 94%
    03:00 +15°C° 0 mm 1 mps 652 mmHg 93%
    04:00 +14°C° 0 mm 1 mps 652 mmHg 92%
    05:00 +15°C° 0 mm 1 mps 653 mmHg 89%
    06:00 +16°C° 0 mm 1 mps 653 mmHg 87%
    07:00 +16°C° 0 mm 1 mps 654 mmHg 83%
    08:00 +20°C° 0 mm 1 mps 655 mmHg 72%
    09:00 +23°C° 0 mm 1 mps 656 mmHg 62%
    10:00 +26°C° 0 mm 1 mps 657 mmHg 52%
    11:00 +27°C° 0 mm 1 mps 656 mmHg 50%
    12:00 +27°C° 0 mm 2 mps 656 mmHg 48%
    13:00 +28°C° 0 mm 2 mps 656 mmHg 47%
    14:00 +27°C° 0 mm 2 mps 655 mmHg 51%
    15:00 +26°C° 0 mm 2 mps 654 mmHg 56%
    16:00 +25°C° 0 mm 2 mps 654 mmHg 61%
    17:00 +23°C° 0 mm 1 mps 653 mmHg 71%
    18:00 +20°C° 0 mm 1 mps 653 mmHg 81%
    19:00 +18°C° 0 mm 1 mps 653 mmHg 91%
    20:00 +18°C° 0 mm 1 mps 653 mmHg 93%
    21:00 +16°C° 0 mm 1 mps 653 mmHg 95%
    22:00 +16°C° 0 mm 1 mps 654 mmHg 96%
    23:00 +15°C° 0 mm 1 mps 653 mmHg 96%

    Tomorrow, 19 January, Sunday

    Time Temperature Precipitation Wind Pressure Humidity
    00:00 +15°C° 0 mm 1 mps 653 mmHg 96%
    01:00 +15°C° 0 mm 1 mps 653 mmHg 96%
    02:00 +15°C° 0 mm 1 mps 653 mmHg 93%
    03:00 +15°C° 0 mm 1 mps 652 mmHg 90%
    04:00 +14°C° 0 mm 1 mps 652 mmHg 87%
    05:00 +15°C° 0 mm 1 mps 653 mmHg 83%
    06:00 +15°C° 0 mm 1 mps 653 mmHg 79%
    07:00 +16°C° 0 mm 1 mps 654 mmHg 75%
    08:00 +20°C° 0 mm 1 mps 655 mmHg 65%
    09:00 +23°C° 0 mm 1 mps 656 mmHg 55%
    10:00 +26°C° 0 mm 1 mps 657 mmHg 45%
    11:00 +26°C° 0 mm 2 mps 657 mmHg 44%
    12:00 +27°C° 0 mm 2 mps 656 mmHg 43%
    13:00 +28°C° 0 mm 2 mps 656 mmHg 42%
    14:00 +27°C° 0 mm 2 mps 656 mmHg 47%
    15:00 +26°C° 0 mm 2 mps 655 mmHg 52%
    16:00 +25°C° 0 mm 2 mps 654 mmHg 57%
    17:00 +21°C° 0 mm 2 mps 654 mmHg 69%
    18:00 +19°C° 0 mm 2 mps 653 mmHg 81%
    19:00 +16°C° 0 mm 1 mps 653 mmHg 93%
    20:00 +16°C° 0 mm 1 mps 653 mmHg 93%
    21:00 +15°C° 0 mm 1 mps 653 mmHg 92%
    22:00 +15°C° 0 mm 1 mps 654 mmHg 92%
    23:00 +15°C° 0 mm 1 mps 653 mmHg 90%

    Day after tomorrow, 20 January, Monday

    Time Temperature Precipitation Wind Pressure Humidity
    00:00 +14°C° 0 mm 1 mps 653 mmHg 88%
    01:00 +14°C° 0 mm 1 mps 653 mmHg 86%
    02:00 +14°C° 0 mm 1 mps 653 mmHg 84%
    03:00 +14°C° 0 mm 1 mps 653 mmHg 83%
    04:00 +14°C° 0 mm 1 mps 652 mmHg 81%
    05:00 +14°C° 0 mm 1 mps 653 mmHg 79%
    06:00 +15°C° 0 mm 1 mps 654 mmHg 76%
    07:00 +15°C° 0 mm 1 mps 654 mmHg 74%
    08:00 +19°C° 0 mm 1 mps 655 mmHg 65%
    09:00 +22°C° 0 mm 1 mps 656 mmHg 56%
    10:00 +26°C° 0 mm 2 mps 657 mmHg 47%
    11:00 +26°C° 0 mm 2 mps 657 mmHg 45%
    12:00 +27°C° 0 mm 2 mps 657 mmHg 44%
    13:00 +28°C° 0 mm 2 mps 656 mmHg 42%
    14:00 +27°C° 0 mm 2 mps 656 mmHg 47%
    15:00 +26°C° 0 mm 2 mps 655 mmHg 52%
    16:00 +25°C° 0 mm 2 mps 654 mmHg 57%
    17:00 +21°C° 0 mm 2 mps 654 mmHg 69%
    18:00 +19°C° 0 mm 2 mps 654 mmHg 80%
    19:00 +18°C° 0 mm 1 mps 654 mmHg 92%
    20:00 +16°C° 0 mm 1 mps 654 mmHg 92%
    21:00 +16°C° 0 mm 1 mps 654 mmHg 92%
    22:00 +15°C° 0 mm 1 mps 655 mmHg 91%
    23:00 +15°C° 0 mm 1 mps 655 mmHg 91%

    21 January, Tuesday

    Time Temperature Precipitation Wind Pressure Humidity
    00:00 +15°C° 0 mm 1 mps 654 mmHg 91%
    01:00 +15°C° 0 mm 1 mps 654 mmHg 91%
    02:00 +15°C° 0 mm 1 mps 654 mmHg 90%
    03:00 +15°C° 0 mm 1 mps 653 mmHg 90%
    04:00 +15°C° 0 mm 1 mps 653 mmHg 89%
    05:00 +16°C° 0 mm 1 mps 654 mmHg 87%
    06:00 +16°C° 0 mm 1 mps 654 mmHg 84%
    07:00 +18°C° 0 mm 1 mps 655 mmHg 82%
    08:00 +21°C° 0 mm 1 mps 656 mmHg 72%
    09:00 +24°C° 0 mm 1 mps 657 mmHg 62%
    10:00 +26°C° 0 mm 2 mps 658 mmHg 52%
    11:00 +27°C° 0 mm 2 mps 658 mmHg 50%
    12:00 +28°C° 0 mm 2 mps 657 mmHg 48%
    13:00 +28°C° 0 mm 2 mps 657 mmHg 46%
    14:00 +27°C° 0 mm 2 mps 656 mmHg 50%
    15:00 +26°C° 0 mm 2 mps 655 mmHg 54%
    16:00 +26°C° 0 mm 2 mps 655 mmHg 58%
    17:00 +23°C° 0.1 mm 2 mps 655 mmHg 70%
    18:00 +21°C° 0.1 mm 1 mps 654 mmHg 82%
    19:00 +18°C° 0.1 mm 1 mps 654 mmHg 94%
    20:00 +18°C° 0 mm 1 mps 654 mmHg 94%
    21:00 +18°C° 0 mm 1 mps 655 mmHg 94%
    22:00 +16°C° 0 mm 1 mps 655 mmHg 94%
    23:00 +16°C° 0 mm 1 mps 655 mmHg 91%

    22 January, Wednesday

    Time Temperature Precipitation Wind Pressure Humidity
    00:00 +16°C° 0 mm 1 mps 654 mmHg 89%
    01:00 +16°C° 0 mm 1 mps 654 mmHg 87%
    02:00 +16°C° 0 mm 1 mps 654 mmHg 86%
    03:00 +16°C° 0 mm 1 mps 653 mmHg 86%
    04:00 +16°C° 0 mm 1 mps 653 mmHg 85%
    05:00 +16°C° 0 mm 1 mps 653 mmHg 82%
    06:00 +18°C° 0 mm 1 mps 654 mmHg 80%
    07:00 +18°C° 0 mm 1 mps 654 mmHg 77%
    08:00 +21°C° 0 mm 1 mps 655 mmHg 66%
    09:00 +24°C° 0 mm 1 mps 656 mmHg 56%
    10:00 +27°C° 0 mm 1 mps 658 mmHg 45%
    11:00 +28°C° 0 mm 2 mps 657 mmHg 42%
    12:00 +28°C° 0 mm 2 mps 656 mmHg 40%
    13:00 +29°C° 0 mm 2 mps 656 mmHg 38%
    14:00 +28°C° 0 mm 2 mps 655 mmHg 41%
    15:00 +27°C° 0 mm 2 mps 654 mmHg 45%
    16:00 +26°C° 0 mm 2 mps 654 mmHg 48%
    17:00 +24°C° 0 mm 1 mps 653 mmHg 60%
    18:00 +21°C° 0 mm 1 mps 653 mmHg 72%
    19:00 +19°C° 0 mm 1 mps 652 mmHg 84%
    20:00 +18°C° 0 mm 1 mps 653 mmHg 85%
    21:00 +18°C° 0 mm 1 mps 653 mmHg 87%
    22:00 +16°C° 0 mm 1 mps 653 mmHg 88%
    23:00 +16°C° 0 mm 1 mps 653 mmHg 85%

    23 January, Thursday

    Time Temperature Precipitation Wind Pressure Humidity
    00:00 +16°C° 0 mm 1 mps 652 mmHg 83%
    01:00 +15°C° 0 mm 1 mps 652 mmHg 80%
    02:00 +15°C° 0 mm 1 mps 652 mmHg 72%
    03:00 +15°C° 0 mm 1 mps 652 mmHg 64%
    04:00 +15°C° 0 mm 1 mps 652 mmHg 56%
    05:00 +15°C° 0 mm 1 mps 652 mmHg 52%
    06:00 +15°C° 0 mm 1 mps 653 mmHg 48%
    07:00 +15°C° 0 mm 1 mps 653 mmHg 44%
    08:00 +20°C° 0 mm 1 mps 654 mmHg 38%
    09:00 +23°C° 0 mm 1 mps 656 mmHg 33%
    10:00 +27°C° 0 mm 1 mps 657 mmHg 28%
    11:00 +28°C° 0 mm 1 mps 656 mmHg 26%
    12:00 +28°C° 0 mm 2 mps 656 mmHg 24%
    13:00 +29°C° 0 mm 2 mps 656 mmHg 23%
    14:00 +29°C° 0 mm 2 mps 655 mmHg 26%
    15:00 +28°C° 0 mm 2 mps 654 mmHg 29%
    16:00 +27°C° 0 mm 2 mps 654 mmHg 32%
    17:00 +24°C° 0 mm 1 mps 653 mmHg 47%
    18:00 +20°C° 0 mm 1 mps 652 mmHg 62%
    19:00 +16°C° 0 mm 1 mps 652 mmHg 76%
    20:00 +16°C° 0 mm 1 mps 652 mmHg 75%
    21:00 +15°C° 0 mm 1 mps 652 mmHg 73%
    22:00 +15°C° 0 mm 1 mps 652 mmHg 71%
    23:00 +15°C° 0 mm 1 mps 652 mmHg 66%
    Show more